| time (UTC) | temp C | wind direction | speed KPH | gust KPH | rain 1hr cm | rain 24hr cm | rain mn cm | humidity % | barometer mb |
| 20260507030701 | 9 | 353 | 1.6 | 9.7 | 0.00 | 0.53 | 0.53 | 95 | 1009.9 |
| 20260507030244 | 9 | 355 | 1.6 | 6.4 | 0.00 | 0.53 | 0.53 | 94 | 1009.7 |
| 20260507025702 | 9 | 355 | 1.6 | 4.8 | 0.00 | 0.53 | 0.53 | 94 | 1009.6 |
| 20260507025243 | 9 | 355 | 1.6 | 8.0 | 0.00 | 0.53 | 0.53 | 94 | 1009.7 |
| 20260507024701 | 9 | 355 | 1.6 | 4.8 | 0.00 | 0.53 | 0.53 | 94 | 1009.9 |
| 20260507024202 | 9 | 355 | 1.6 | 6.4 | 0.00 | 0.53 | 0.53 | 94 | 1009.9 |
| 20260507023202 | 9 | 355 | 1.6 | 8.0 | 0.00 | 0.53 | 0.53 | 94 | 1009.8 |
| 20260507022701 | 9 | 355 | 0.0 | 8.0 | 0.00 | 0.53 | 0.53 | 94 | 1009.7 |
| 20260507022201 | 9 | 352 | 1.6 | 6.4 | 0.00 | 0.53 | 0.53 | 94 | 1009.8 |
| 20260507021701 | 9 | 351 | 1.6 | 8.0 | 0.00 | 0.53 | 0.53 | 94 | 1010.0 |
| 20260507021201 | 9 | 350 | 1.6 | 8.0 | 0.00 | 0.53 | 0.53 | 94 | 1010.2 |
| 20260507020701 | 9 | 355 | 1.6 | 8.0 | 0.00 | 0.53 | 0.53 | 94 | 1010.3 |
| 20260507020202 | 10 | 345 | 1.6 | 6.4 | 0.00 | 0.53 | 0.53 | 94 | 1010.3 |
| 20260507015701 | 10 | 347 | 1.6 | 4.8 | 0.00 | 0.53 | 0.53 | 94 | 1010.3 |
| 20260507015201 | 10 | 348 | 1.6 | 8.0 | 0.00 | 0.53 | 0.53 | 94 | 1010.1 |
| 20260507014702 | 10 | 351 | 1.6 | 6.4 | 0.00 | 0.53 | 0.53 | 94 | 1010.2 |
| 20260507014201 | 10 | 350 | 1.6 | 8.0 | 0.00 | 0.53 | 0.53 | 94 | 1010.4 |
| 20260507013701 | 10 | 1 | 3.2 | 6.4 | 0.00 | 0.53 | 0.53 | 94 | 1010.5 |
| 20260507013202 | 10 | 340 | 3.2 | 14.5 | 0.00 | 0.53 | 0.53 | 94 | 1010.3 |
| 20260507012701 | 10 | 351 | 1.6 | 11.3 | 0.00 | 0.53 | 0.53 | 94 | 1010.1 |
| 20260507012201 | 10 | 351 | 1.6 | 4.8 | 0.00 | 0.53 | 0.53 | 94 | 1010.2 |
| 20260507011701 | 10 | 345 | 3.2 | 8.0 | 0.00 | 0.53 | 0.53 | 94 | 1010.3 |
| 20260507010701 | 10 | 353 | 3.2 | 8.0 | 0.00 | 0.53 | 0.53 | 94 | 1010.3 |
| 20260507010201 | 10 | 337 | 3.2 | 8.0 | 0.00 | 0.53 | 0.53 | 94 | 1010.2 |
| 20260507005701 | 10 | 324 | 3.2 | 11.3 | 0.00 | 0.53 | 0.53 | 94 | 1009.9 |
| 20260507005201 | 10 | 358 | 4.8 | 11.3 | 0.00 | 0.53 | 0.53 | 93 | 1009.9 |
| 20260507004702 | 10 | 357 | 6.4 | 14.5 | 0.00 | 0.53 | 0.53 | 94 | 1009.8 |
| 20260507004244 | 10 | 346 | 4.8 | 17.7 | 0.00 | 0.53 | 0.53 | 94 | 1009.5 |
| 20260507003701 | 10 | 2 | 3.2 | 9.7 | 0.00 | 0.53 | 0.53 | 94 | 1009.2 |
| 20260507003202 | 10 | 25 | 3.2 | 11.3 | 0.00 | 0.53 | 0.53 | 93 | 1009.2 |
| 20260507002201 | 11 | 347 | 4.8 | 14.5 | 0.00 | 0.53 | 0.53 | 94 | 1009.1 |
| 20260507001744 | 11 | 18 | 4.8 | 16.1 | 0.00 | 0.53 | 0.53 | 94 | 1008.9 |
| 20260507001201 | 11 | 8 | 4.8 | 14.5 | 0.00 | 0.53 | 0.53 | 94 | 1008.8 |
| 20260507000702 | 11 | 11 | 3.2 | 9.7 | 0.00 | 0.53 | 0.53 | 94 | 1008.7 |
| 20260507000202 | 11 | 357 | 4.8 | 11.3 | 0.00 | 0.53 | 0.53 | 94 | 1008.5 |
| 20260506235701 | 11 | 353 | 3.2 | 8.0 | 0.00 | 0.53 | 0.53 | 94 | 1008.3 |
| 20260506235201 | 11 | 24 | 1.6 | 9.7 | 0.00 | 0.53 | 0.53 | 94 | 1008.3 |
| 20260506234702 | 11 | 35 | 1.6 | 8.0 | 0.00 | 0.53 | 0.53 | 94 | 1008.3 |
| 20260506234201 | 12 | 334 | 1.6 | 9.7 | 0.00 | 0.53 | 0.53 | 94 | 1008.2 |
| 20260506233702 | 12 | 327 | 1.6 | 6.4 | 0.00 | 0.53 | 0.53 | 94 | 1008.1 |
| 20260506233202 | 12 | 325 | 1.6 | 6.4 | 0.00 | 0.53 | 0.53 | 94 | 1008.1 |
| 20260506232701 | 12 | 11 | 1.6 | 9.7 | 0.00 | 0.53 | 0.53 | 94 | 1007.9 |
| 20260506232201 | 12 | 5 | 1.6 | 9.7 | 0.00 | 0.53 | 0.53 | 94 | 1007.9 |
| 20260506231701 | 12 | 354 | 3.2 | 8.0 | 0.00 | 0.53 | 0.53 | 94 | 1007.7 |
| 20260506231201 | 12 | 335 | 3.2 | 8.0 | 0.00 | 0.53 | 0.53 | 94 | 1007.6 |
| 20260506230702 | 12 | 358 | 1.6 | 11.3 | 0.00 | 0.53 | 0.53 | 94 | 1007.5 |
| 20260506230244 | 12 | 0 | 3.2 | 8.0 | 0.00 | 0.53 | 0.53 | 93 | 1007.3 |
| 20260506225701 | 12 | 334 | 3.2 | 8.0 | 0.00 | 0.53 | 0.53 | 93 | 1007.3 |
| 20260506225201 | 13 | 340 | 4.8 | 14.5 | 0.00 | 0.53 | 0.53 | 93 | 1007.3 |
| 20260506224701 | 13 | 326 | 4.8 | 14.5 | 0.00 | 0.53 | 0.53 | 93 | 1007.3 |
| 20260506224201 | 13 | 310 | 3.2 | 22.5 | 0.00 | 0.53 | 0.53 | 93 | 1007.3 |
| 20260506223701 | 13 | 359 | 3.2 | 8.0 | 0.00 | 0.53 | 0.53 | 93 | 1007.1 |
| 20260506223201 | 13 | 0 | 4.8 | 11.3 | 0.00 | 0.53 | 0.53 | 92 | 1007.0 |
| 20260506222702 | 14 | 348 | 4.8 | 16.1 | 0.00 | 0.53 | 0.53 | 92 | 1006.9 |
| 20260506222201 | 15 | 330 | 4.8 | 17.7 | 0.00 | 0.53 | 0.53 | 92 | 1006.9 |
| 20260506221702 | 15 | 306 | 4.8 | 14.5 | 0.00 | 0.53 | 0.53 | 92 | 1006.7 |
| 20260506221202 | 15 | 346 | 4.8 | 12.9 | 0.00 | 0.53 | 0.53 | 93 | 1006.4 |
| 20260506220702 | 16 | 278 | 4.8 | 11.3 | 0.00 | 0.53 | 0.53 | 93 | 1006.1 |
| 20260506220201 | 16 | 260 | 4.8 | 14.5 | 0.00 | 0.53 | 0.53 | 93 | 1005.9 |
| 20260506215701 | 16 | 271 | 4.8 | 9.7 | 0.00 | 0.53 | 0.53 | 93 | 1005.8 |
| 20260506215201 | 16 | 260 | 4.8 | 12.9 | 0.00 | 0.53 | 0.53 | 93 | 1005.7 |
| 20260506214702 | 16 | 263 | 3.2 | 14.5 | 0.00 | 0.53 | 0.53 | 94 | 1005.7 |
| 20260506214201 | 16 | 267 | 3.2 | 14.5 | 0.00 | 0.53 | 0.53 | 94 | 1005.6 |
| 20260506213744 | 17 | 285 | 4.8 | 16.1 | 0.00 | 0.53 | 0.53 | 94 | 1005.5 |
| 20260506213201 | 17 | 275 | 4.8 | 16.1 | 0.00 | 0.53 | 0.53 | 95 | 1005.4 |
| 20260506212701 | 17 | 276 | 1.6 | 9.7 | 0.00 | 0.53 | 0.53 | 96 | 1005.2 |
| 20260506212202 | 16 | 275 | 3.2 | 11.3 | 0.00 | 0.53 | 0.53 | 96 | 1005.2 |
| 20260506211701 | 16 | 285 | 3.2 | 16.1 | 0.00 | 0.53 | 0.53 | 96 | 1005.2 |
| 20260506211201 | 16 | 249 | 3.2 | 12.9 | 0.00 | 0.53 | 0.53 | 96 | 1005.2 |
| 20260506210701 | 16 | 255 | 3.2 | 19.3 | 0.00 | 0.53 | 0.53 | 96 | 1005.1 |
| 20260506210202 | 16 | 237 | 3.2 | 11.3 | 0.00 | 0.53 | 0.53 | 96 | 1005.0 |
| 20260506205701 | 16 | 242 | 1.6 | 11.3 | 0.00 | 0.53 | 0.53 | 96 | 1005.0 |
| 20260506205201 | 16 | 223 | 1.6 | 9.7 | 0.00 | 0.53 | 0.53 | 96 | 1005.0 |
| 20260506204701 | 16 | 256 | 1.6 | 14.5 | 0.00 | 0.53 | 0.53 | 95 | 1004.9 |
| 20260506204202 | 16 | 278 | 3.2 | 9.7 | 0.00 | 0.53 | 0.53 | 95 | 1004.9 |
| 20260506203743 | 16 | 240 | 3.2 | 9.7 | 0.00 | 0.53 | 0.53 | 95 | 1004.8 |
| 20260506203201 | 16 | 261 | 3.2 | 8.0 | 0.00 | 0.53 | 0.53 | 96 | 1004.9 |
| 20260506202744 | 16 | 257 | 4.8 | 9.7 | 0.00 | 0.53 | 0.53 | 96 | 1004.9 |
| 20260506202202 | 16 | 228 | 1.6 | 16.1 | 0.00 | 0.53 | 0.53 | 96 | 1004.8 |
| 20260506201702 | 16 | 195 | 1.6 | 6.4 | 0.00 | 0.53 | 0.53 | 96 | 1004.8 |
| 20260506201202 | 16 | 216 | 1.6 | 8.0 | 0.00 | 0.53 | 0.53 | 96 | 1004.8 |
| 20260506200202 | 16 | 253 | 1.6 | 4.8 | 0.00 | 0.53 | 0.53 | 96 | 1004.8 |
| 20260506195744 | 16 | 214 | 1.6 | 8.0 | 0.00 | 0.53 | 0.53 | 96 | 1004.9 |
| 20260506195244 | 16 | 253 | 3.2 | 11.3 | 0.00 | 0.53 | 0.53 | 96 | 1004.9 |
| 20260506194702 | 16 | 261 | 3.2 | 17.7 | 0.00 | 0.53 | 0.53 | 96 | 1004.9 |
| 20260506194244 | 16 | 222 | 3.2 | 14.5 | 0.00 | 0.53 | 0.53 | 97 | 1004.9 |
| 20260506193744 | 16 | 257 | 3.2 | 11.3 | 0.00 | 0.53 | 0.53 | 97 | 1004.9 |
| 20260506193201 | 16 | 242 | 1.6 | 4.8 | 0.00 | 0.53 | 0.53 | 97 | 1004.8 |
| 20260506192744 | 16 | 244 | 1.6 | 12.9 | 0.00 | 0.53 | 0.53 | 97 | 1004.8 |
| 20260506192202 | 16 | 228 | 3.2 | 11.3 | 0.00 | 0.53 | 0.53 | 97 | 1005.0 |
| 20260506191701 | 16 | 209 | 3.2 | 12.9 | 0.00 | 0.53 | 0.53 | 97 | 1004.9 |
| 20260506191202 | 16 | 212 | 3.2 | 16.1 | 0.00 | 0.53 | 0.53 | 97 | 1005.1 |
| 20260506190744 | 16 | 245 | 3.2 | 14.5 | 0.00 | 0.53 | 0.53 | 97 | 1005.1 |
| 20260506190202 | 16 | 248 | 3.2 | 8.0 | 0.00 | 0.53 | 0.53 | 97 | 1005.0 |
| 20260506185744 | 16 | 217 | 3.2 | 14.5 | 0.00 | 0.53 | 0.53 | 97 | 1005.1 |
| 20260506185202 | 16 | 221 | 1.6 | 9.7 | 0.00 | 0.53 | 0.53 | 97 | 1005.1 |
| 20260506184702 | 16 | 193 | 1.6 | 4.8 | 0.00 | 0.53 | 0.53 | 97 | 1005.1 |
| 20260506183702 | 16 | 237 | 1.6 | 6.4 | 0.00 | 0.53 | 0.53 | 97 | 1005.1 |
| 20260506183201 | 15 | 223 | 1.6 | 4.8 | 0.00 | 0.53 | 0.53 | 97 | 1005.1 |
| 20260506182701 | 15 | 226 | 1.6 | 6.4 | 0.00 | 0.53 | 0.53 | 97 | 1005.0 |
| 20260506182201 | 15 | 133 | 1.6 | 4.8 | 0.00 | 0.53 | 0.53 | 98 | 1005.2 |
| 20260506181702 | 15 | 252 | 1.6 | 8.0 | 0.03 | 0.53 | 0.53 | 97 | 1005.1 |
| 20260506181202 | 15 | 135 | 1.6 | 9.7 | 0.03 | 0.53 | 0.53 | 97 | 1005.2 |
| 20260506180702 | 15 | 203 | 1.6 | 8.0 | 0.03 | 0.53 | 0.53 | 97 | 1005.3 |
| 20260506180201 | 15 | 180 | 1.6 | 9.7 | 0.03 | 0.53 | 0.53 | 97 | 1005.4 |
| 20260506175743 | 15 | 199 | 1.6 | 6.4 | 0.03 | 0.53 | 0.53 | 97 | 1005.4 |
| 20260506175201 | 15 | 199 | 1.6 | 6.4 | 0.05 | 0.53 | 0.53 | 97 | 1005.3 |
| 20260506174743 | 15 | 154 | 1.6 | 4.8 | 0.05 | 0.53 | 0.53 | 97 | 1005.4 |
| 20260506174244 | 15 | 166 | 1.6 | 6.4 | 0.05 | 0.53 | 0.53 | 97 | 1005.5 |
| 20260506173701 | 15 | 185 | 1.6 | 8.0 | 0.05 | 0.53 | 0.53 | 97 | 1005.4 |
| 20260506173202 | 15 | 177 | 1.6 | 4.8 | 0.05 | 0.53 | 0.53 | 97 | 1005.4 |
| 20260506172702 | 15 | 221 | 1.6 | 8.0 | 0.05 | 0.53 | 0.53 | 97 | 1005.4 |
| 20260506172202 | 15 | 183 | 1.6 | 8.0 | 0.05 | 0.53 | 0.53 | 97 | 1005.4 |
| 20260506171702 | 15 | 213 | 1.6 | 9.7 | 0.03 | 0.51 | 0.51 | 97 | 1005.5 |
| 20260506171202 | 15 | 215 | 1.6 | 12.9 | 0.03 | 0.51 | 0.51 | 97 | 1005.5 |
| 20260506170702 | 15 | 242 | 3.2 | 11.3 | 0.03 | 0.51 | 0.51 | 97 | 1005.6 |
| 20260506170202 | 15 | 242 | 3.2 | 6.4 | 0.03 | 0.51 | 0.51 | 96 | 1005.6 |
| 20260506165744 | 15 | 200 | 3.2 | 16.1 | 0.03 | 0.51 | 0.51 | 96 | 1005.6 |
| 20260506165244 | 15 | 210 | 3.2 | 16.1 | 0.00 | 0.48 | 0.48 | 96 | 1005.6 |
| 20260506164702 | 15 | 210 | 3.2 | 14.5 | 0.00 | 0.48 | 0.48 | 96 | 1005.6 |
| 20260506164244 | 15 | 228 | 3.2 | 11.3 | 0.00 | 0.48 | 0.48 | 96 | 1005.5 |
| 20260506163702 | 15 | 271 | 1.6 | 11.3 | 0.00 | 0.48 | 0.48 | 96 | 1005.5 |
| 20260506163202 | 15 | 215 | 1.6 | 9.7 | 0.00 | 0.48 | 0.48 | 96 | 1005.5 |
| 20260506162702 | 15 | 223 | 1.6 | 16.1 | 0.00 | 0.48 | 0.48 | 96 | 1005.5 |
| 20260506162202 | 15 | 161 | 0.0 | 6.4 | 0.00 | 0.48 | 0.48 | 96 | 1005.4 |
| 20260506161702 | 15 | 230 | 1.6 | 3.2 | 0.00 | 0.48 | 0.48 | 96 | 1005.5 |
| 20260506161244 | 15 | 223 | 1.6 | 17.7 | 0.03 | 0.48 | 0.48 | 96 | 1005.5 |
| 20260506160701 | 15 | 247 | 3.2 | 4.8 | 0.05 | 0.48 | 0.48 | 96 | 1005.5 |
| 20260506160202 | 15 | 221 | 3.2 | 9.7 | 0.05 | 0.48 | 0.48 | 96 | 1005.4 |
| 20260506155702 | 15 | 164 | 1.6 | 19.3 | 0.05 | 0.48 | 0.48 | 96 | 1005.5 |
| 20260506155202 | 15 | 228 | 1.6 | 9.7 | 0.08 | 0.48 | 0.48 | 96 | 1005.4 |
| 20260506154702 | 15 | 210 | 1.6 | 9.7 | 0.08 | 0.48 | 0.48 | 96 | 1005.3 |
| 20260506154202 | 15 | 184 | 1.6 | 6.4 | 0.08 | 0.48 | 0.48 | 96 | 1005.2 |
| 20260506153744 | 15 | 276 | 0.0 | 6.4 | 0.15 | 0.48 | 0.48 | 96 | 1005.1 |
| 20260506153202 | 15 | 226 | 1.6 | 8.0 | 0.15 | 0.48 | 0.48 | 96 | 1004.9 |
| 20260506152702 | 15 | 209 | 1.6 | 17.7 | 0.15 | 0.48 | 0.48 | 96 | 1005.0 |
| 20260506152202 | 15 | 115 | 0.0 | 1.6 | 0.15 | 0.48 | 0.48 | 96 | 1005.1 |
| 20260506151702 | 15 | 115 | 1.6 | 3.2 | 0.15 | 0.48 | 0.48 | 96 | 1005.1 |
| 20260506151201 | 15 | 184 | 1.6 | 11.3 | 0.13 | 0.46 | 0.46 | 96 | 1005.2 |
| 20260506150702 | 15 | 112 | 1.6 | 8.0 | 0.10 | 0.43 | 0.43 | 96 | 1005.2 |
| 20260506150244 | 15 | 64 | 1.6 | 20.9 | 0.13 | 0.43 | 0.43 | 96 | 1005.3 |
| 20260506145744 | 15 | 165 | 1.6 | 16.1 | 0.13 | 0.43 | 0.43 | 96 | 1005.4 |
| 20260506144702 | 15 | 248 | 1.6 | 6.4 | 0.10 | 0.38 | 0.38 | 96 | 1005.7 |
| 20260506143744 | 15 | 209 | 1.6 | 8.0 | 0.10 | 0.33 | 0.33 | 95 | 1005.6 |
| 20260506143202 | 15 | 233 | 1.6 | 6.4 | 0.10 | 0.33 | 0.33 | 95 | 1005.6 |
| 20260506142702 | 15 | 193 | 1.6 | 6.4 | 0.10 | 0.33 | 0.33 | 95 | 1005.6 |
| 20260506142202 | 15 | 203 | 1.6 | 6.4 | 0.10 | 0.33 | 0.33 | 95 | 1005.5 |
| 20260506141701 | 15 | 172 | 1.6 | 11.3 | 0.10 | 0.33 | 0.33 | 95 | 1005.4 |
| 20260506141244 | 15 | 197 | 1.6 | 8.0 | 0.13 | 0.33 | 0.33 | 95 | 1005.2 |
| 20260506140702 | 14 | 197 | 1.6 | 9.7 | 0.13 | 0.33 | 0.33 | 95 | 1005.2 |
| 20260506140202 | 14 | 152 | 1.6 | 3.2 | 0.10 | 0.30 | 0.30 | 95 | 1005.4 |
| 20260506135201 | 14 | 179 | 1.6 | 19.3 | 0.13 | 0.28 | 0.28 | 95 | 1005.5 |
| 20260506134702 | 14 | 133 | 1.6 | 8.0 | 0.13 | 0.28 | 0.28 | 94 | 1005.5 |
| 20260506134201 | 14 | 137 | 1.6 | 6.4 | 0.15 | 0.28 | 0.28 | 94 | 1005.5 |
| 20260506133202 | 14 | 154 | 0.0 | 6.4 | 0.13 | 0.23 | 0.23 | 94 | 1005.8 |
| 20260506132701 | 14 | 155 | 0.0 | 1.6 | 0.13 | 0.23 | 0.23 | 93 | 1005.6 |
| 20260506132202 | 14 | 155 | 1.6 | 4.8 | 0.13 | 0.23 | 0.23 | 93 | 1005.7 |
| 20260506131703 | 14 | 156 | 0.0 | 6.4 | 0.15 | 0.23 | 0.23 | 93 | 1005.7 |
| 20260506131202 | 14 | 269 | 1.6 | 8.0 | 0.13 | 0.20 | 0.20 | 93 | 1005.6 |
| 20260506130701 | 14 | 274 | 1.6 | 14.5 | 0.13 | 0.20 | 0.20 | 93 | 1005.7 |
| 20260506130244 | 14 | 146 | 1.6 | 11.3 | 0.13 | 0.20 | 0.20 | 93 | 1005.8 |
| 20260506125702 | 15 | 216 | 1.6 | 6.4 | 0.13 | 0.18 | 0.18 | 92 | 1005.8 |
| 20260506125244 | 15 | 171 | 1.6 | 8.0 | 0.10 | 0.15 | 0.15 | 92 | 1005.9 |
| 20260506124702 | 15 | 193 | 1.6 | 9.7 | 0.10 | 0.15 | 0.15 | 92 | 1006.0 |
| 20260506124201 | 15 | 183 | 3.2 | 6.4 | 0.10 | 0.13 | 0.13 | 91 | 1006.0 |
| 20260506123702 | 15 | 180 | 3.2 | 16.1 | 0.13 | 0.13 | 0.13 | 91 | 1006.0 |
| 20260506123202 | 15 | 181 | 1.6 | 9.7 | 0.10 | 0.10 | 0.10 | 91 | 1006.1 |
| 20260506122702 | 15 | 179 | 3.2 | 11.3 | 0.10 | 0.10 | 0.10 | 90 | 1006.1 |
| 20260506121702 | 15 | 153 | 1.6 | 9.7 | 0.08 | 0.08 | 0.08 | 89 | 1006.2 |
| 20260506121201 | 15 | 177 | 1.6 | 11.3 | 0.08 | 0.08 | 0.08 | 88 | 1006.0 |
| 20260506120744 | 15 | 154 | 1.6 | 11.3 | 0.08 | 0.08 | 0.08 | 87 | 1006.0 |
| 20260506120201 | 15 | 200 | 1.6 | 8.0 | 0.08 | 0.08 | 0.08 | 86 | 1005.9 |
| 20260506115744 | 16 | 225 | 1.6 | 3.2 | 0.05 | 0.05 | 0.05 | 85 | 1005.9 |
| 20260506115201 | 16 | 220 | 1.6 | 8.0 | 0.05 | 0.05 | 0.05 | 84 | 1005.9 |
| 20260506114744 | 16 | 167 | 1.6 | 9.7 | 0.05 | 0.05 | 0.05 | 82 | 1005.9 |
| 20260506113702 | 17 | 192 | 1.6 | 6.4 | 0.00 | 0.00 | 0.00 | 79 | 1005.8 |
| 20260506113202 | 17 | 157 | 1.6 | 6.4 | 0.00 | 0.00 | 0.00 | 77 | 1005.7 |
| 20260506112702 | 17 | 165 | 1.6 | 8.0 | 0.00 | 0.00 | 0.00 | 76 | 1005.7 |
| 20260506112202 | 17 | 240 | 1.6 | 9.7 | 0.00 | 0.00 | 0.00 | 75 | 1005.7 |
| 20260506111702 | 17 | 200 | 1.6 | 8.0 | 0.00 | 0.00 | 0.00 | 73 | 1005.5 |
| 20260506111244 | 18 | 179 | 1.6 | 8.0 | 0.00 | 0.00 | 0.00 | 72 | 1005.5 |
| 20260506110703 | 18 | 199 | 1.6 | 14.5 | 0.00 | 0.00 | 0.00 | 70 | 1005.5 |
| 20260506110202 | 18 | 197 | 1.6 | 6.4 | 0.00 | 0.00 | 0.00 | 69 | 1005.4 |
| 20260506105702 | 17 | 221 | 1.6 | 16.1 | 0.00 | 0.00 | 0.00 | 69 | 1005.3 |
| 20260506105202 | 18 | 175 | 0.0 | 6.4 | 0.00 | 0.00 | 0.00 | 69 | 1005.1 |
| 20260506104702 | 18 | 174 | 1.6 | 4.8 | 0.00 | 0.00 | 0.00 | 68 | 1005.0 |
| 20260506104244 | 18 | 258 | 1.6 | 9.7 | 0.00 | 0.00 | 0.00 | 68 | 1004.9 |
| 20260506103702 | 18 | 297 | 1.6 | 9.7 | 0.00 | 0.00 | 0.00 | 68 | 1005.0 |
| 20260506103202 | 18 | 159 | 1.6 | 9.7 | 0.00 | 0.00 | 0.00 | 67 | 1004.8 |
| 20260506102702 | 18 | 150 | 1.6 | 8.0 | 0.00 | 0.00 | 0.00 | 67 | 1004.7 |
| 20260506102202 | 18 | 279 | 3.2 | 8.0 | 0.00 | 0.00 | 0.00 | 67 | 1004.7 |
| 20260506101702 | 18 | 154 | 3.2 | 12.9 | 0.00 | 0.00 | 0.00 | 67 | 1004.7 |
| 20260506101244 | 18 | 235 | 3.2 | 9.7 | 0.00 | 0.00 | 0.00 | 67 | 1004.7 |
| 20260506100244 | 18 | 183 | 3.2 | 8.0 | 0.00 | 0.00 | 0.00 | 66 | 1004.7 |
| 20260506095703 | 18 | 140 | 3.2 | 9.7 | 0.00 | 0.00 | 0.00 | 66 | 1004.5 |
| 20260506095202 | 18 | 158 | 1.6 | 6.4 | 0.00 | 0.00 | 0.00 | 65 | 1004.7 |
| 20260506094702 | 18 | 157 | 1.6 | 11.3 | 0.00 | 0.00 | 0.00 | 65 | 1004.8 |
| 20260506094202 | 18 | 121 | 1.6 | 8.0 | 0.00 | 0.00 | 0.00 | 64 | 1004.8 |
| 20260506093702 | 18 | 122 | 1.6 | 3.2 | 0.00 | 0.00 | 0.00 | 63 | 1004.8 |
| 20260506093202 | 18 | 129 | 1.6 | 9.7 | 0.00 | 0.00 | 0.00 | 63 | 1004.8 |
| 20260506092702 | 18 | 173 | 3.2 | 6.4 | 0.00 | 0.00 | 0.00 | 62 | 1004.9 |
| 20260506092202 | 18 | 183 | 3.2 | 16.1 | 0.00 | 0.00 | 0.00 | 62 | 1004.9 |
| 20260506091702 | 18 | 172 | 3.2 | 12.9 | 0.00 | 0.00 | 0.00 | 62 | 1004.9 |
| 20260506091202 | 18 | 178 | 3.2 | 11.3 | 0.00 | 0.00 | 0.00 | 62 | 1005.0 |
| 20260506090703 | 18 | 203 | 3.2 | 25.7 | 0.00 | 0.00 | 0.00 | 61 | 1005.1 |
| 20260506090244 | 18 | 223 | 1.6 | 24.1 | 0.00 | 0.00 | 0.00 | 61 | 1005.1 |
| 20260506085702 | 18 | 278 | 1.6 | 6.4 | 0.00 | 0.00 | 0.00 | 61 | 1005.0 |
| 20260506085244 | 18 | 290 | 1.6 | 17.7 | 0.00 | 0.00 | 0.00 | 60 | 1005.0 |
| 20260506084702 | 18 | 185 | 1.6 | 11.3 | 0.00 | 0.00 | 0.00 | 60 | 1005.1 |
| 20260506084202 | 18 | 180 | 1.6 | 8.0 | 0.00 | 0.00 | 0.00 | 60 | 1005.1 |
| 20260506083702 | 18 | 177 | 1.6 | 4.8 | 0.00 | 0.00 | 0.00 | 59 | 1005.1 |
| 20260506083202 | 18 | 153 | 1.6 | 9.7 | 0.00 | 0.00 | 0.00 | 59 | 1005.1 |
| 20260506082202 | 19 | 179 | 1.6 | 4.8 | 0.00 | 0.00 | 0.00 | 58 | 1005.2 |
| 20260506081702 | 19 | 199 | 1.6 | 14.5 | 0.00 | 0.00 | 0.00 | 58 | 1005.0 |
| 20260506081202 | 19 | 195 | 3.2 | 9.7 | 0.00 | 0.00 | 0.00 | 57 | 1005.2 |
| 20260506080702 | 19 | 284 | 3.2 | 9.7 | 0.00 | 0.00 | 0.00 | 57 | 1005.2 |
| 20260506080202 | 19 | 178 | 1.6 | 8.0 | 0.00 | 0.00 | 0.00 | 57 | 1005.2 |
| 20260506073202 | 19 | 179 | 3.2 | 11.3 | 0.00 | 0.00 | 0.00 | 55 | 1005.2 |
| 20260506072702 | 19 | 186 | 3.2 | 8.0 | 0.00 | 0.00 | 0.00 | 55 | 1005.2 |
| 20260506071702 | 19 | 231 | 1.6 | 8.0 | 0.00 | 0.00 | 0.00 | 54 | 1005.4 |
| 20260506071244 | 19 | 198 | 1.6 | 11.3 | 0.00 | 0.00 | 0.00 | 55 | 1005.5 |
| 20260506070702 | 19 | 192 | 1.6 | 6.4 | 0.00 | 0.00 | 0.00 | 54 | 1005.4 |
| 20260506070202 | 19 | 156 | 3.2 | 9.7 | 0.00 | 0.00 | 0.00 | 54 | 1005.4 |
| 20260506062202 | 20 | 227 | 3.2 | 8.0 | 0.00 | 0.00 | 0.00 | 51 | 1005.9 |
| 20260506061744 | 20 | 212 | 3.2 | 11.3 | 0.00 | 0.00 | 0.00 | 51 | 1006.0 |
| 20260506061202 | 20 | 188 | 3.2 | 16.1 | 0.00 | 0.00 | 0.00 | 52 | 1006.1 |
| 20260506060702 | 20 | 217 | 1.6 | 11.3 | 0.00 | 0.00 | 0.00 | 51 | 1006.1 |
| 20260506060202 | 20 | 200 | 3.2 | 6.4 | 0.00 | 0.00 | 0.00 | 50 | 1006.1 |
| 20260506051202 | 20 | 177 | 3.2 | 12.9 | 0.00 | 0.00 | 0.00 | 49 | 1006.5 |
| 20260506050702 | 20 | 184 | 1.6 | 12.9 | 0.00 | 0.00 | 0.00 | 49 | 1006.5 |
| 20260506050202 | 20 | 155 | 1.6 | 8.0 | 0.00 | 0.00 | 0.00 | 49 | 1006.6 |
| 20260506044702 | 20 | 179 | 3.2 | 11.3 | 0.00 | 0.00 | 0.00 | 48 | 1006.5 |
| 20260506044202 | 20 | 165 | 3.2 | 17.7 | 0.00 | 0.00 | 0.00 | 48 | 1006.5 |
| 20260506043702 | 20 | 196 | 3.2 | 17.7 | 0.00 | 0.00 | 0.00 | 48 | 1006.5 |
| 20260506043203 | 20 | 207 | 3.2 | 9.7 | 0.00 | 0.00 | 0.00 | 49 | 1006.5 |
| 20260506042744 | 20 | 167 | 3.2 | 25.7 | 0.00 | 0.00 | 0.00 | 48 | 1006.4 |
| 20260506042202 | 20 | 178 | 1.6 | 16.1 | 0.00 | 0.00 | 0.00 | 50 | 1006.4 |
| 20260506041702 | 20 | 192 | 1.6 | 16.1 | 0.00 | 0.00 | 0.00 | 50 | 1006.4 |
| 20260506041202 | 20 | 169 | 1.6 | 16.1 | 0.00 | 0.00 | 0.00 | 50 | 1006.5 |
| 20260506040703 | 20 | 194 | 1.6 | 6.4 | 0.00 | 0.00 | 0.00 | 50 | 1006.6 |
| 20260506040202 | 20 | 195 | 1.6 | 8.0 | 0.00 | 0.00 | 0.00 | 50 | 1006.6 |
| 20260506035702 | 20 | 175 | 1.6 | 9.7 | 0.00 | 0.00 | 0.00 | 50 | 1006.6 |
| 20260506035202 | 20 | 160 | 1.6 | 8.0 | 0.00 | 0.00 | 0.00 | 51 | 1006.7 |
| 20260506034702 | 20 | 162 | 1.6 | 6.4 | 0.00 | 0.00 | 0.00 | 51 | 1006.6 |
| 20260506034202 | 20 | 179 | 1.6 | 8.0 | 0.00 | 0.00 | 0.00 | 52 | 1006.5 |
| 20260506033744 | 20 | 213 | 1.6 | 4.8 | 0.00 | 0.00 | 0.00 | 51 | 1006.6 |
| 20260506033202 | 20 | 200 | 1.6 | 8.0 | 0.00 | 0.00 | 0.00 | 51 | 1006.6 |
| 20260506032745 | 20 | 225 | 1.6 | 9.7 | 0.00 | 0.00 | 0.00 | 51 | 1006.7 |
| 20260506032202 | 20 | 213 | 1.6 | 9.7 | 0.00 | 0.00 | 0.00 | 52 | 1006.7 |
| 20260506031702 | 20 | 228 | 1.6 | 8.0 | 0.00 | 0.00 | 0.00 | 52 | 1006.6 |
| 20260506031202 | 20 | 200 | 1.6 | 11.3 | 0.00 | 0.00 | 0.00 | 51 | 1006.7 |